Weather History for KCMD - January, 2014

Change the Weather History Date:

Sunday, January 12, 2014

  Actual Average Record
Temperature  
Mean Temperature 44 °F -  
Max Temperature 58 °F - - ()
Min Temperature 30 °F - - ()
Degree Days  
Heating Degree Days 21    
Moisture  
Dew Point 32 °F    
Average Humidity 67    
Maximum Humidity 99    
Minimum Humidity 31    
Precipitation  
Precipitation 0.00 in - - ()
Sea Level Pressure  
Sea Level Pressure 30.11 in    
Wind  
Wind Speed 2 mph (South)    
Max Wind Speed 9 mph    
Max Gust Speed -    
Visibility 10 miles    
Events      
Averages and records for this station are not official NWS values.
T = Trace of Precipitation, MM = Missing Value Source: NWS Daily Summary

Daily Weather History Graph

Daily Weather History Graph

Search for Another Location

Airport or City:

Trip Planner

Search our weather history database for the weather conditions in past years. The results will help you decide how hot, cold, wet, or windy it might be!

Date:

Astronomy

Jan. 12, 2014 Rise Set
Actual Time 6:53 AM CST 4:58 PM CST
Civil Twilight 6:26 AM CST 5:25 PM CST
Nautical Twilight 5:55 AM CST 5:56 PM CST
Astronomical Twilight 5:25 AM CST 6:26 PM CST
Moon 2:24 PM CST (1/12) 3:53 AM CST (1/12)
Length of Visible Light 10h 58m
Length of Day
10h 04m
Waxing Gibbous, 90% of the Moon is Illuminated
Jan 12
Waxing Gibbous
Jan 15
Full
Jan 23
Last Quarter
Jan 30
New
Feb 6
First Quarter

Hourly Weather History & Observations

Time (CST) Temp. Windchill Dew Point Humidity Pressure Visibility Wind Dir Wind Speed Gust Speed Precip Events Conditions
12:15 AM 36.7 °F - 34.2 °F 91% 30.03 in 10.0 mi Calm Calm - N/A   Clear
12:35 AM 35.4 °F - 33.3 °F 92% 30.02 in 10.0 mi Calm Calm - N/A   Clear
12:55 AM 34.5 °F 31.6 °F 32.9 °F 94% 30.03 in 10.0 mi South 3.5 mph - N/A   Clear
1:15 AM 34.3 °F - 32.9 °F 94% 30.03 in 10.0 mi Calm Calm - N/A   Clear
1:35 AM 33.8 °F - 32.2 °F 94% 30.04 in 10.0 mi Calm Calm - N/A   Clear
1:55 AM 32.5 °F - 31.8 °F 97% 30.05 in 10.0 mi Calm Calm - N/A   Clear
2:15 AM 32.2 °F - 31.5 °F 97% 30.05 in 10.0 mi Calm Calm - N/A   Clear
2:35 AM 32.2 °F - 31.1 °F 96% 30.06 in 10.0 mi Calm Calm - N/A   Clear
2:55 AM 32.0 °F - 30.9 °F 96% 30.07 in 10.0 mi Calm Calm - N/A   Clear
3:15 AM 32.0 °F - 31.3 °F 97% 30.06 in 10.0 mi Calm Calm - N/A   Clear
3:35 AM 31.3 °F - 30.2 °F 96% 30.06 in 10.0 mi Calm Calm - N/A   Clear
3:55 AM 30.6 °F - 29.8 °F 97% 30.07 in 10.0 mi Calm Calm - N/A   Clear
4:15 AM 30.7 °F - 30.0 °F 97% 30.08 in 10.0 mi Calm Calm - N/A   Clear
4:35 AM 30.7 °F - 30.0 °F 97% 30.08 in 10.0 mi Calm Calm - N/A   Clear
4:55 AM 30.9 °F - 30.4 °F 98% 30.09 in 10.0 mi Calm Calm - N/A   Clear
5:15 AM 31.8 °F - 31.1 °F 97% 30.09 in 10.0 mi Calm Calm - N/A   Clear
5:35 AM 32.4 °F - 31.8 °F 98% 30.10 in 10.0 mi Calm Calm - N/A   Clear
5:55 AM 33.4 °F - 32.9 °F 98% 30.11 in 7.0 mi Calm Calm - N/A   Clear
6:15 AM 33.6 °F - 33.3 °F 99% 30.11 in 5.0 mi Calm Calm - N/A   Clear
6:35 AM 32.5 °F - 32.2 °F 99% 30.12 in 10.0 mi Calm Calm - N/A   Clear
6:55 AM 32.7 °F - 32.4 °F 99% 30.12 in 3.0 mi Calm Calm - N/A   Clear
7:15 AM 32.2 °F - 32.0 °F 99% 30.13 in 5.0 mi Calm Calm - N/A   Clear
7:35 AM 32.2 °F - 31.8 °F 99% 30.14 in 10.0 mi Calm Calm - N/A   Clear
7:55 AM 33.4 °F - 32.7 °F 97% 30.15 in 10.0 mi Calm Calm - N/A   Clear
8:15 AM 36.1 °F - 34.7 °F 94% 30.16 in 10.0 mi Calm Calm - N/A   Clear
8:35 AM 38.5 °F - 36.0 °F 91% 30.17 in 10.0 mi Calm Calm - N/A   Clear
8:55 AM 40.6 °F - 36.3 °F 85% 30.18 in 10.0 mi Calm Calm - N/A   Clear
9:15 AM 42.8 °F - 36.9 °F 80% 30.18 in 10.0 mi Calm Calm - N/A   Clear
9:35 AM 44.4 °F - 36.5 °F 74% 30.19 in 10.0 mi Calm Calm - N/A   Clear
9:55 AM 46.6 °F - 36.7 °F 68% 30.18 in 10.0 mi Calm Calm - N/A   Clear
10:15 AM 47.7 °F - 36.9 °F 66% 30.19 in 10.0 mi Calm Calm - N/A   Clear
10:35 AM 49.3 °F - 36.3 °F 61% 30.19 in 10.0 mi SSW 4.6 mph - N/A   Clear
10:55 AM 50.0 °F - 36.3 °F 59% 30.18 in 10.0 mi SSE 4.6 mph - N/A   Clear
11:15 AM 50.9 °F - 36.7 °F 58% 30.17 in 10.0 mi South 4.6 mph - N/A   Clear
11:35 AM 52.0 °F - 35.6 °F 54% 30.16 in 10.0 mi South 5.8 mph - N/A   Clear
11:55 AM 52.7 °F - 34.2 °F 49% 30.14 in 10.0 mi SSE 5.8 mph - N/A   Clear
12:15 PM 53.4 °F - 33.3 °F 46% 30.13 in 10.0 mi Calm Calm - N/A   Clear
12:35 PM 54.1 °F - 33.4 °F 46% 30.13 in 10.0 mi South 5.8 mph - N/A   Clear
12:55 PM 54.7 °F - 33.6 °F 45% 30.12 in 10.0 mi South 6.9 mph - N/A   Clear
1:15 PM 55.2 °F - 31.6 °F 41% 30.12 in 10.0 mi South 4.6 mph - N/A   Clear
1:35 PM 56.1 °F - 29.3 °F 36% 30.11 in 10.0 mi South 6.9 mph - N/A   Clear
1:55 PM 56.8 °F - 27.9 °F 33% 30.11 in 10.0 mi SSW 9.2 mph - N/A   Clear
2:15 PM 57.2 °F - 26.8 °F 31% 30.10 in 10.0 mi South 5.8 mph - N/A   Clear
2:35 PM 57.6 °F - 28.2 °F 33% 30.10 in 10.0 mi South 9.2 mph - N/A   Clear
2:55 PM 57.9 °F - 28.0 °F 32% 30.09 in 10.0 mi South 4.6 mph - N/A   Clear
3:15 PM 57.7 °F - 28.2 °F 32% 30.09 in 10.0 mi South 9.2 mph - N/A   Clear
3:35 PM 58.1 °F - 27.9 °F 32% 30.10 in 10.0 mi SSW 9.2 mph - N/A   Clear
3:55 PM 57.7 °F - 28.2 °F 32% 30.10 in 10.0 mi South 9.2 mph - N/A   Clear
4:15 PM 56.8 °F - 28.4 °F 34% 30.11 in 10.0 mi South 6.9 mph - N/A   Clear
4:35 PM 55.6 °F - 28.9 °F 36% 30.11 in 10.0 mi South 6.9 mph - N/A   Clear
4:55 PM 52.9 °F - 29.5 °F 41% 30.11 in 10.0 mi South 5.8 mph - N/A   Clear
5:15 PM 51.1 °F - 29.3 °F 43% 30.10 in 10.0 mi SSE 3.5 mph - N/A   Clear
5:35 PM 49.1 °F - 29.1 °F 46% 30.11 in 10.0 mi Calm Calm - N/A   Clear
5:55 PM 47.5 °F - 29.5 °F 50% 30.11 in 10.0 mi Calm Calm - N/A   Clear
6:15 PM 45.7 °F - 30.6 °F 56% 30.11 in 10.0 mi Calm Calm - N/A   Clear
6:35 PM 45.7 °F - 30.2 °F 55% 30.11 in 10.0 mi Calm Calm - N/A   Clear
6:55 PM 46.4 °F 45.2 °F 29.3 °F 51% 30.11 in 10.0 mi South 3.5 mph - N/A   Clear
7:15 PM 45.9 °F 42.9 °F 30.0 °F 54% 30.10 in 10.0 mi SSE 5.8 mph - N/A   Clear
7:35 PM 48.6 °F - 30.6 °F 50% 30.11 in 10.0 mi SSE 4.6 mph - N/A   Clear
7:55 PM 47.1 °F - 30.6 °F 53% 30.11 in 10.0 mi South 5.8 mph - N/A   Clear
8:15 PM 46.8 °F - 30.9 °F 54% 30.11 in 10.0 mi South 5.8 mph - N/A   Clear
8:35 PM 46.4 °F 43.5 °F 30.9 °F 55% 30.12 in 10.0 mi South 5.8 mph - N/A   Clear
8:55 PM 45.7 °F 41.5 °F 31.1 °F 57% 30.12 in 10.0 mi South 8.1 mph - N/A   Clear
9:15 PM 45.9 °F 42.3 °F 31.1 °F 56% 30.12 in 10.0 mi South 6.9 mph - N/A   Clear
9:35 PM 44.8 °F 41.0 °F 31.1 °F 59% 30.11 in 10.0 mi South 6.9 mph - N/A   Clear
9:55 PM 45.9 °F 41.7 °F 31.1 °F 56% 30.11 in 10.0 mi South 8.1 mph - N/A   Clear
10:15 PM 46.2 °F 42.7 °F 31.1 °F 56% 30.11 in 10.0 mi South 6.9 mph - N/A   Clear
10:35 PM 46.6 °F - 31.1 °F 55% 30.10 in 10.0 mi SSE 6.9 mph - N/A   Clear
10:55 PM 46.8 °F - 31.3 °F 55% 30.10 in 10.0 mi SSE 5.8 mph - N/A   Clear
11:15 PM 46.6 °F - 31.1 °F 55% 30.08 in 10.0 mi SE 6.9 mph - N/A   Clear
11:35 PM 46.8 °F - 30.9 °F 54% 30.08 in 10.0 mi SSE 6.9 mph - N/A   Clear
11:55 PM 46.4 °F 43.5 °F 31.1 °F 55% 30.07 in 10.0 mi SE 5.8 mph - N/A   Clear